Overview Statistics Trail Chart Weather Telemetry Raw packets
 

This is the latest recevied weather packets stored in our database for station/object 4S6DRJ-13. If no packets are shown the sender has not sent any weather packets the latest 10 day(s).

<< 513 514 515 516 517 518 519 >>
Time Temp. Humidity Pressure Rain* Wind** Luminosity Snow
1787664369 27.78° C 84% 1010.2 hPa 0 mm 1.79 m/s, 215° 0 W/m² -
1787664309 27.78° C 84% 1010 hPa 0 mm 1.34 m/s, 220° 0 W/m² -
1787664248 27.78° C 84% 1009.9 hPa 0 mm 1.79 m/s, 301° 0 W/m² -
1787664186 27.78° C 84% 1010 hPa 0 mm 0.45 m/s, 216° 0 W/m² -
1787664126 27.78° C 84% 1010.1 hPa 0 mm 0.89 m/s, 265° 0 W/m² -
1787664065 27.78° C 83% 1010.1 hPa 0 mm 1.79 m/s, 240° 0 W/m² -
1787664005 27.78° C 83% 1009.9 hPa 0 mm 1.79 m/s, 137° 0 W/m² -
1787663944 27.78° C 83% 1010.1 hPa 0 mm 1.34 m/s, 239° 0 W/m² -
1787663882 27.78° C 83% 1010 hPa 0 mm 0.45 m/s, 320° 0 W/m² -
1787663822 27.78° C 83% 1010.1 hPa 0 mm 0.89 m/s, 98° 0 W/m² -
1787663760 27.78° C 83% 1010 hPa 0 mm 1.79 m/s, 234° 0 W/m² -
1787663699 27.78° C 83% 1010.1 hPa 0 mm 0.89 m/s, 235° 0 W/m² -
1787663638 27.78° C 83% 1010.2 hPa 0 mm 1.34 m/s, 313° 0 W/m² -
1787663578 27.78° C 83% 1010.1 hPa 0 mm 2.68 m/s, 222° 0 W/m² -
1787663516 27.78° C 83% 1010.2 hPa 0 mm 1.34 m/s, 223° 0 W/m² -
1787663456 27.78° C 83% 1010 hPa 0 mm 0.45 m/s, 230° 0 W/m² -
1787663395 27.78° C 83% 1010.2 hPa 0 mm 2.68 m/s, 126° 0 W/m² -
1787663333 27.78° C 83% 1009.9 hPa 0 mm 1.79 m/s, 243° 0 W/m² -
1787663272 27.78° C 83% 1010 hPa 0 mm 1.34 m/s, 241° 0 W/m² -
1787663211 27.78° C 83% 1010 hPa 0 mm 0 m/s 0 W/m² -
1787663150 27.78° C 83% 1009.9 hPa 0 mm 0 m/s 0 W/m² -
1787663090 27.78° C 83% 1010 hPa 0 mm 0.89 m/s, 278° 0 W/m² -
1787663028 27.78° C 82% 1009.9 hPa 0 mm 1.34 m/s, 234° 0 W/m² -
1787662968 27.78° C 82% 1009.7 hPa 0 mm 0.89 m/s, 253° 0 W/m² -
1787662906 27.78° C 82% 1009.8 hPa 0 mm 1.79 m/s, 0° 0 W/m² -

* Rain latest hour (hover to see other rain measurements)
** Current wind speed in m/s (hover to see current wind gust speed)